EW9221 Weather Reports


Display with metric or nautical units.
time (UTC)temp
F
wind
direction
speed
MPH
gust
MPH
rain 1hr
in
rain 24hr
in
rain mn
in
humidity
%
barometer
mb
20260506210010 0 207 1.0 7.0 0.00 0.00 0.00 1008.6
20260506204507 0 206 5.0 11.0 0.00 0.00 0.00 1008.7
20260506203002 0 166 2.0 8.0 0.00 0.00 0.00 1009.0
20260506201627 0 205 2.0 6.0 0.00 0.00 0.00 1009.0
20260506200053 0 292 4.0 11.0 0.00 0.00 0.00 1009.3
20260506194552 0 203 2.0 7.0 0.00 0.00 0.00 1009.6
20260506193051 0 20 2.0 7.0 0.00 0.00 0.00 1010.0
20260506191542 0 153 2.0 8.0 0.00 0.00 0.00 1010.1
20260506190036 0 155 3.0 9.0 0.00 0.00 0.00 1010.1
20260506184536 0 184 3.0 6.0 0.00 0.00 0.00 1010.3
20260506183027 0 262 1.0 7.0 0.00 0.00 0.00 1010.6
20260506181522 0 313 2.0 8.0 0.00 0.00 0.00 1010.7
20260506180019 0 263 4.0 10.0 0.00 0.00 0.00 1010.9
20260506174516 0 319 2.0 8.0 0.00 0.00 0.00 1010.9
20260506173010 0 149 3.0 9.0 0.00 0.00 0.00 1011.1
20260506171506 0 165 2.0 12.0 0.00 0.00 0.00 1011.6
20260506170001 0 304 2.0 8.0 0.00 0.00 0.00 1011.7
20260506164556 0 219 4.0 13.0 0.00 0.00 0.00 1011.7
20260506163103 0 120 1.0 10.0 0.00 0.00 0.00 1012.0
20260506161548 0 236 4.0 10.0 0.00 0.00 0.00 1012.2
20260506160046 0 240 3.0 8.0 0.00 0.00 0.00 1012.2
20260506154545 0 209 4.0 8.0 0.00 0.00 0.00 1012.1
20260506153039 0 223 2.0 11.0 0.00 0.00 0.00 1012.2
20260506151530 0 163 1.0 8.0 0.00 0.00 0.00 1012.1
20260506150026 0 269 5.0 12.0 0.00 0.00 0.00 1012.1
20260506144521 0 143 2.0 9.0 0.00 0.00 0.00 1011.8
20260506143017 0 191 5.0 11.0 0.00 0.00 0.00 1011.7
20260506141512 0 174 5.0 10.0 0.00 0.00 0.00 1011.7
20260506140008 0 209 2.0 11.0 0.00 0.00 0.00 1011.8
20260506134504 0 184 5.0 11.0 0.00 0.00 0.00 1011.8
20260506133104 0 153 4.0 11.0 0.00 0.00 0.00 1012.0
20260506131557 0 104 2.0 8.0 0.00 0.00 0.00 1011.8
20260506130053 0 200 3.0 6.0 0.00 0.00 0.00 1011.7
20260506124546 0 256 3.0 7.0 0.00 0.00 0.00 1011.5
20260506123042 0 205 1.0 4.0 0.00 0.00 0.00 1011.3
20260506121537 0 172 1.0 5.0 0.00 0.00 0.00 1011.1
20260506120035 0 200 0.0 1.0 0.00 0.00 0.00 1011.0
20260506114529 0 210 0.0 1.0 0.00 0.00 0.00 1011.0
20260506113025 0 0.0 0.0 0.00 0.00 0.00 1011.0
20260506111526 0 0.0 0.0 0.00 0.00 0.00 1010.9
20260506110016 0 0.0 0.0 0.00 0.00 0.00 1010.6
20260506104511 0 0.0 0.0 0.00 0.00 0.00 1010.5
20260506103008 0 0.0 0.0 0.00 0.00 0.00 1010.3
20260506101502 0 0.0 0.0 0.00 0.00 0.00 1010.1
20260506100059 0 0.0 0.0 0.00 0.00 0.00 1010.5
20260506094555 0 0.0 0.0 0.00 0.00 0.00 1010.6
20260506093107 0 0.0 0.0 0.00 0.00 0.00 1010.4
20260506091547 0 0.0 0.0 0.00 0.00 0.00 1010.1
20260506090044 0 0.0 0.0 0.00 0.00 0.00 1010.1
20260506084537 0 221 0.0 0.0 0.00 0.00 0.00 1010.2
20260506083037 0 221 0.0 0.0 0.00 0.00 0.00 1010.1
20260506081528 0 221 0.0 0.0 0.00 0.00 0.00 1010.1
20260506073015 0 159 0.0 3.0 0.00 0.00 0.00 1009.8
20260506071509 0 169 0.0 0.0 0.00 0.00 0.00 1010.1
20260506061601 0 230 0.0 0.0 0.00 0.00 0.00 1010.6
20260506044527 0 223 0.0 0.0 0.00 0.00 0.00 1011.3
20260506043021 0 223 0.0 0.0 0.00 0.00 0.00 1011.3
20260506041517 0 225 0.0 0.0 0.00 0.00 0.00 1011.3
20260506040017 0 225 0.0 0.0 0.00 0.00 0.00 1011.5
20260506034509 0 218 0.0 0.0 0.00 0.00 0.00 1011.4
20260506033005 0 163 0.0 0.0 0.00 0.00 0.00 1011.3
20260506031604 0 163 0.0 0.0 0.00 0.00 0.00 1011.2
20260506030055 0 199 0.0 1.0 0.00 0.00 0.00 1011.1
20260506024558 0 211 0.0 1.0 0.00 0.00 0.00 1011.1
20260506023054 0 228 0.0 2.0 0.00 0.00 0.00 1011.1
20260506021542 0 157 1.0 5.0 0.00 0.00 0.00 1010.7
20260506020108 0 207 1.0 5.0 0.00 0.00 0.00 1010.6
20260506014533 0 136 5.0 11.0 0.00 0.00 0.00 1010.5
20260506013031 0 153 5.0 10.0 0.00 0.00 0.00 1010.5
20260506011527 0 152 7.0 11.0 0.00 0.00 0.00 1010.4
20260506010024 0 128 4.0 10.0 0.00 0.00 0.00 1010.5
20260506004523 0 136 7.0 13.0 0.00 0.00 0.00 1010.3
20260506003016 0 142 6.0 14.0 0.00 0.00 0.00 1010.2
20260506001507 0 130 9.0 15.0 0.00 0.00 0.00 1010.1
20260506000003 0 117 11.0 15.0 0.00 0.00 0.00 1010.1
20260505234616 0 137 9.0 15.0 0.00 0.00 0.00 1009.9
20260505233058 0 119 11.0 15.0 0.00 0.00 0.00 1009.9
20260505231556 0 112 11.0 15.0 0.00 0.00 0.00 1009.8
20260505230050 0 106 10.0 17.0 0.00 0.00 0.00 1009.8
20260505224547 0 117 12.0 16.0 0.00 0.00 0.00 1009.9
20260505223040 0 124 11.0 17.0 0.00 0.00 0.00 1009.8
20260505221536 0 130 11.0 19.0 0.00 0.00 0.00 1009.8
20260505220029 0 128 11.0 16.0 0.00 0.00 0.00 1009.7
20260505214524 0 96 11.0 17.0 0.00 0.00 0.00 1009.7
20260505213026 0 98 11.0 19.0 0.00 0.00 0.00 1009.8
20260505211521 0 95 10.0 21.0 0.00 0.00 0.00 1009.9